Wind_Speed
1 1 2 3 4 5 5 6 6 4 4 5 7 9 11 11 11 9 8 6 5 5 5 5 6 6 7 8 9 10 11 11 12 14 15 16 17 17 16 15 13 13 12 12 11 9 8 8 8 8 8 8 8 8 8 8 8 9 9 9 8 8 8 8 9 11 11 10 10 10 10 10 11 11 11 11 12 11 12 12 11 12 12 13 13
3 1 2 3 4 6 6 6 6 6 6 6 7 9 10 10 9 8 7 5 4 4 4 4 4 5 6 8 9 9 10 10 11 13 14 15 16 17 16 16 14 13 11 10 10 9 8 8 8 8 8 8 8 8 7 7 7 8 7 7 6 7 6 7 8 8 7 9 9 9 10 10 11 12 11 11 12 12 13 13 12 12 12 13 12
5 4 3 4 5 6 7 7 7 7 7 7 8 9 9 9 8 8 6 5 4 3 2 2 3 4 6 7 8 8 9 10 11 12 14 15 15 15 15 14 13 12 11 10 9 9 9 9 9 8 8 8 8 8 8 8 8 8 7 6 5 5 5 5 6 5 5 7 8 9 10 10 12 12 11 12 13 13 13 12 12 11 11 11 11
5 5 5 5 5 6 8 8 8 8 8 8 9 10 10 9 9 8 6 4 4 2 1 1 2 4 5 6 7 8 9 10 11 13 14 14 15 14 14 14 12 11 9 9 9 9 9 9 9 9 9 9 9 9 8 8 8 8 8 7 5 4 4 5 5 4 4 6 6 7 8 9 11 12 12 13 15 14 12 11 11 11 11 11 10
6 6 5 5 5 6 8 9 10 10 10 9 10 11 11 11 10 8 6 5 4 2 0 1 2 3 4 5 7 8 10 11 12 13 14 14 15 15 14 14 13 12 10 8 7 8 8 8 8 9 9 9 9 9 9 9 9 8 7 6 5 4 4 4 4 4 4 5 6 6 7 8 10 11 12 12 13 14 12 11 11 11 10 10 11
7 7 7 5 6 7 8 10 11 11 11 10 11 12 11 11 11 9 7 5 4 3 2 1 2 2 3 5 7 9 10 11 12 13 14 15 16 16 15 15 14 13 11 9 8 7 8 8 8 8 8 8 8 8 8 8 8 9 8 6 5 4 3 3 4 4 3 3 4 6 8 10 10 10 11 12 12 13 13 13 13 13 12 11 12
7 8 8 7 6 7 9 10 11 12 12 11 11 12 12 11 11 10 8 6 5 4 3 3 2 2 2 5 7 8 10 11 12 13 15 16 17 17 17 17 15 14 13 12 10 8 8 8 8 8 8 7 7 8 8 8 8 9 8 8 6 5 4 3 3 4 3 3 4 5 7 9 10 10 11 13 13 14 14 13 13 14 13 11 12
6 7 8 9 8 8 9 11 13 13 12 12 12 13 13 11 11 11 11 9 8 6 4 4 3 2 2 4 6 8 9 11 12 14 16 17 18 19 19 18 17 15 14 13 12 10 9 9 9 9 9 8 8 8 7 7 8 8 8 8 8 7 5 4 3 3 3 4 4 4 5 6 8 9 10 12 14 15 14 12 11 12 12 11 11
6 7 8 9 10 10 10 11 13 13 12 13 13 14 15 13 12 11 11 11 10 8 6 6 5 3 3 4 6 8 9 11 13 15 17 18 19 20 20 20 18 16 14 13 12 11 9 9 9 9 9 9 9 8 7 7 7 7 7 7 7 7 6 6 4 3 4 5 4 4 6 7 7 9 11 12 15 16 13 10 11 11 11 11 12
6 7 8 9 10 11 10 11 13 13 12 13 13 14 15 16 15 13 13 13 11 11 8 7 6 5 5 5 6 8 10 12 14 16 17 19 21 22 22 22 20 18 16 14 13 12 10 10 9 10 10 10 10 9 8 7 7 7 7 6 6 5 5 5 5 5 4 5 5 5 6 7 8 10 11 12 14 14 10 8 10 11 11 11 11
6 6 7 8 8 9 9 10 12 13 14 13 13 14 15 16 16 15 14 12 11 13 10 9 8 7 6 5 6 8 11 12 14 16 18 20 21 22 23 23 22 20 18 16 14 13 12 11 10 10 10 10 10 10 10 9 8 8 8 7 6 5 5 4 4 5 5 5 6 7 7 7 8 9 11 12 13 11 8 8 10 11 11 11 10
9 7 6 5 5 6 7 8 11 13 13 13 12 13 14 15 15 15 14 12 13 14 12 11 9 8 7 6 7 9 11 13 15 16 18 19 21 22 23 23 23 21 19 18 17 15 14 13 12 12 11 11 11 11 11 10 9 9 9 8 7 7 7 6 5 5 5 5 6 6 7 8 8 10 11 11 12 10 8 9 10 9 10 10 10
12 10 8 6 5 4 4 6 8 10 12 12 12 12 12 13 13 14 14 14 15 15 13 12 11 10 9 9 9 11 12 14 16 17 18 19 20 21 22 23 23 22 20 19 18 17 16 15 14 13 13 13 13 12 12 11 10 10 9 9 8 8 9 8 8 7 6 5 6 6 7 8 9 11 11 10 11 11 9 9 9 9 10 9 9
13 12 11 9 7 5 3 2 4 7 9 10 10 11 11 11 12 14 14 15 16 15 14 14 13 12 11 11 11 12 13 15 16 17 17 18 19 20 21 22 23 22 20 19 19 18 17 16 14 14 13 13 13 13 12 11 11 11 10 10 9 10 10 10 10 9 8 6 5 6 7 8 10 11 11 11 10 10 9 7 7 9 10 8 8
11 12 11 11 9 7 4 2 1 4 6 7 8 9 9 11 12 13 15 16 16 16 15 15 15 14 14 14 13 13 14 15 16 17 17 17 18 19 20 21 22 21 20 19 19 19 18 17 15 14 13 13 12 12 12 12 11 11 10 10 10 10 11 11 11 10 9 7 6 5 6 8 10 11 11 10 9 9 10 7 6 7 8 6 7
11 10 10 10 10 8 6 3 1 2 3 4 5 6 8 10 11 12 14 15 16 17 17 17 16 16 16 16 15 15 15 16 16 16 17 17 18 18 19 20 21 21 20 19 19 19 19 18 16 14 13 13 13 12 12 12 11 10 10 10 10 10 10 10 10 10 9 8 8 7 7 8 9 10 10 9 7 8 9 8 6 6 5 6 7
11 10 9 8 8 8 7 4 2 1 3 4 5 6 8 9 11 12 13 14 16 17 18 18 18 17 17 17 17 16 16 16 16 17 18 18 18 19 19 19 21 21 20 19 19 19 19 19 17 15 13 12 12 12 11 11 10 9 9 9 9 8 8 8 8 9 9 9 9 9 8 8 8 9 10 9 7 7 6 7 7 5 4 5 6
11 10 9 8 7 7 6 5 4 2 1 3 5 6 8 9 11 12 13 14 15 17 18 19 19 19 19 19 18 18 17 17 17 17 18 18 19 19 19 18 19 20 20 19 19 19 19 19 18 15 13 11 11 11 11 10 9 8 8 7 7 7 7 6 6 7 9 9 10 10 9 9 8 8 9 10 9 8 6 6 7 5 3 3 5
10 9 9 9 8 7 6 5 4 4 5 4 4 5 7 9 10 12 13 14 15 16 17 18 19 19 19 19 19 18 18 18 18 18 19 19 19 20 19 17 18 19 19 19 20 20 19 19 18 16 13 11 11 10 10 9 8 8 7 6 6 6 5 5 5 5 8 9 10 10 10 9 9 8 9 10 11 11 9 8 7 6 6 5 6
10 10 9 8 7 8 8 6 5 5 5 5 6 6 6 7 9 11 12 14 14 15 16 16 17 18 18 18 18 18 18 19 19 19 20 20 21 21 19 16 16 17 18 19 20 20 20 19 19 16 13 12 10 10 9 9 8 7 7 6 6 5 4 4 4 4 5 7 9 10 11 10 10 9 9 10 11 11 10 8 6 5 6 6 7
9 9 9 8 7 7 9 9 7 6 6 7 8 8 8 8 9 10 11 12 13 14 14 15 16 16 17 17 18 18 19 20 21 21 21 22 23 23 18 14 15 16 17 18 20 20 20 20 19 16 14 12 10 9 9 8 8 7 7 6 6 5 4 3 3 4 4 5 7 8 9 10 10 10 10 10 10 10 9 7 5 5 5 5 6
9 10 9 9 8 7 9 9 7 7 7 8 9 10 11 11 11 11 12 12 13 14 14 15 15 16 17 18 19 20 21 22 22 23 23 24 26 23 16 12 13 15 16 17 19 20 20 20 19 17 14 13 11 9 8 8 7 7 7 6 6 5 4 4 4 4 4 5 5 6 6 7 7 8 8 8 8 8 6 5 4 3 3 3 4
11 12 10 7 7 8 10 9 8 8 9 10 11 11 12 12 13 13 14 14 15 15 15 16 16 17 17 18 20 21 22 23 23 23 22 23 25 21 14 12 13 14 15 17 18 19 20 20 19 17 15 13 12 10 8 8 8 7 7 7 6 6 5 4 4 4 5 5 5 5 5 5 4 4 5 5 5 6 5 4 4 3 2 2 3
11 10 8 6 7 8 10 9 9 10 12 12 13 13 13 14 15 16 16 17 17 17 17 17 17 18 18 19 21 20 19 20 20 21 20 19 18 16 13 12 12 13 15 16 17 19 19 19 19 17 15 13 12 11 9 8 8 8 8 7 6 6 5 5 5 5 5 5 5 5 4 4 4 3 3 3 3 4 4 4 4 4 3 3 3
8 7 5 5 7 8 9 10 10 12 13 14 14 14 15 15 16 17 18 18 19 18 17 17 17 19 20 20 19 18 16 16 16 18 18 15 13 13 14 12 11 13 15 16 17 18 19 19 19 17 15 13 12 11 10 8 8 8 8 7 7 6 6 5 5 5 5 4 4 4 3 3 3 3 2 2 2 3 3 3 3 3 2 2 2
5 5 5 6 7 8 10 11 12 13 15 16 16 16 16 16 16 16 16 17 18 18 18 17 17 19 20 19 18 17 15 14 14 14 14 13 12 13 13 11 11 13 14 15 16 18 18 19 18 18 16 13 12 11 10 9 8 8 8 7 7 6 6 6 5 5 5 4 3 3 3 3 3 3 2 2 2 2 2 2 2 2 2 2 2
3 5 7 7 7 9 11 13 13 14 15 16 17 18 19 18 16 16 15 15 16 18 19 19 19 19 20 19 18 17 17 16 14 12 12 12 12 12 12 11 12 13 14 15 16 17 18 18 18 18 16 14 12 11 10 9 8 8 7 7 7 6 6 6 6 5 4 3 3 3 3 3 3 3 2 2 2 1 1 1 1 1 2 2 2
5 5 6 6 7 9 11 13 12 13 15 16 15 14 15 17 17 17 16 15 15 17 19 20 20 20 20 21 20 19 19 19 16 14 12 12 12 12 12 12 12 13 14 15 16 17 17 17 17 17 16 14 12 11 9 9 8 7 7 7 6 6 6 5 5 5 4 3 3 4 4 4 3 3 2 2 2 1 1 2 2 2 2 2 1
8 7 6 7 7 9 11 13 12 13 15 15 14 12 10 10 12 14 14 14 14 15 17 20 20 20 20 21 22 22 21 19 17 15 14 13 12 12 12 12 13 13 14 14 15 16 16 17 17 17 16 14 12 11 9 8 8 7 6 6 6 6 5 5 5 4 4 3 3 4 4 4 3 3 3 2 2 2 2 2 2 2 2 2 1
10 9 9 9 9 10 11 12 13 13 14 14 14 12 10 7 7 9 11 12 12 13 15 18 19 20 20 20 21 21 21 19 18 16 14 13 12 12 12 13 13 13 13 14 15 16 16 16 16 16 17 15 13 11 10 8 8 7 5 5 5 6 5 5 4 4 4 4 4 5 5 5 4 4 3 3 3 3 3 3 2 2 2 2 2
12 13 13 13 12 12 11 12 13 13 13 14 13 12 11 10 9 10 12 13 13 12 13 15 17 17 17 16 17 19 20 19 18 16 14 12 12 12 12 12 12 12 13 14 15 16 17 16 16 16 16 15 13 12 10 9 8 7 6 5 4 5 6 5 4 4 4 4 5 5 6 6 5 5 5 4 4 4 4 4 3 3 3 3 3
15 16 17 16 15 14 14 13 14 14 14 14 14 12 11 11 12 13 14 15 13 11 12 13 14 15 15 15 15 16 17 18 17 16 15 13 13 12 12 12 12 12 13 15 16 17 17 17 16 15 16 16 14 13 12 10 9 8 7 5 4 5 6 6 5 5 4 4 5 6 6 6 6 6 6 6 6 6 5 5 4 4 4 3 3
15 17 19 19 18 18 18 16 15 15 16 16 14 13 12 11 11 12 14 16 15 14 12 10 10 13 15 16 16 15 15 16 17 17 16 15 14 13 13 13 13 13 14 15 16 17 18 18 17 16 16 16 15 13 12 11 10 9 8 6 5 4 5 6 6 5 5 5 5 6 7 7 7 7 7 7 7 7 6 6 5 4 4 4 4
15 16 17 18 18 19 19 18 16 15 16 17 16 15 15 14 11 10 11 14 17 17 15 11 10 14 18 19 19 16 14 13 15 16 17 17 16 15 14 14 15 15 15 16 16 18 18 19 19 17 17 16 16 14 13 12 11 10 9 8 6 5 5 6 6 6 6 5 6 6 7 8 8 8 8 8 8 7 7 7 6 5 5 5 4
16 17 18 19 20 20 20 20 19 16 16 17 18 18 19 18 15 12 10 10 13 16 16 14 15 18 20 21 21 19 17 15 15 16 17 17 17 17 17 17 18 17 17 17 18 18 18 19 19 18 17 17 17 15 14 13 12 11 10 9 8 7 6 6 6 6 6 6 6 7 7 8 9 9 9 9 9 8 8 8 7 6 6 6 5
17 18 18 19 21 23 23 22 22 21 19 20 20 20 21 20 18 15 12 10 11 13 13 12 14 17 19 20 20 19 18 18 18 18 18 18 18 18 19 20 20 20 20 20 20 19 19 19 20 20 18 18 17 16 15 14 13 12 12 11 10 9 7 6 6 7 7 7 7 7 8 8 9 10 10 10 10 9 9 9 8 7 7 7 6
16 16 16 17 17 19 20 21 21 20 21 23 24 23 23 22 20 18 15 12 12 14 14 12 13 15 16 17 19 19 18 18 19 19 19 20 19 19 21 22 22 22 22 22 21 20 19 20 22 21 20 19 17 17 16 15 13 13 13 12 12 10 9 8 7 7 7 8 8 8 8 9 9 10 11 11 11 10 10 9 9 8 8 8 7
17 17 17 17 18 18 18 18 18 18 19 22 22 22 21 21 21 21 20 18 14 13 14 15 15 15 15 17 18 19 20 21 20 19 19 20 21 22 25 25 23 22 23 22 22 21 22 22 21 19 19 19 18 17 16 16 15 13 13 13 13 12 11 10 8 8 8 8 9 9 9 9 10 10 11 11 11 11 10 10 9 9 8 8 8
19 19 19 19 20 20 20 20 19 19 21 21 21 21 21 20 20 21 23 25 22 15 13 14 16 16 17 18 18 19 21 23 23 20 19 22 24 26 27 24 21 20 22 24 25 24 24 22 18 17 17 17 17 17 16 17 16 15 13 14 14 14 13 11 10 9 9 9 9 10 10 10 10 10 11 11 11 11 11 10 10 9 9 8 8
19 20 20 20 20 21 21 21 21 21 22 23 22 23 23 22 21 20 21 25 27 25 18 14 15 17 18 19 19 20 21 23 24 23 22 24 26 26 24 22 20 20 21 23 25 25 24 22 20 18 17 16 16 17 17 17 17 16 15 14 14 15 14 13 12 11 10 10 10 10 10 10 10 11 11 11 11 11 11 11 10 9 9 9 9
21 21 21 20 21 20 20 21 21 21 21 22 23 24 24 24 24 23 22 23 25 27 26 20 16 17 19 20 20 21 22 22 23 24 24 26 26 24 24 24 22 20 20 22 24 24 23 22 21 20 18 17 16 17 17 18 18 18 17 15 14 15 15 14 13 12 12 11 11 11 11 11 11 11 11 12 12 12 11 11 10 9 9 9 9
22 22 21 20 20 20 20 20 21 21 22 22 23 24 25 25 25 26 26 26 25 26 26 25 23 21 21 22 23 24 24 25 24 24 25 27 27 26 25 25 23 21 21 22 22 22 22 22 21 20 20 19 18 18 19 19 19 19 19 17 16 15 15 14 14 14 13 12 12 12 11 11 11 11 11 11 12 12 12 11 10 10 9 9 9
24 23 22 21 21 21 21 22 22 23 24 24 25 26 27 27 27 27 28 28 27 26 26 26 26 27 26 26 26 26 27 27 28 27 27 27 28 28 26 25 24 23 21 21 21 21 22 22 21 21 20 19 19 20 20 21 20 20 20 19 18 17 15 15 15 16 15 13 13 13 13 12 12 12 12 12 12 12 12 12 11 10 10 10 10
24 24 23 22 22 22 23 23 24 25 26 27 27 27 28 29 30 30 29 28 28 26 25 24 25 26 27 28 29 29 29 29 30 30 30 29 29 29 28 27 26 24 23 23 24 23 23 23 22 21 20 20 20 21 21 22 23 22 21 21 21 19 17 16 16 17 16 15 14 14 14 13 13 13 13 13 12 12 12 12 12 11 10 10 10
24 24 24 24 25 25 26 26 27 28 28 29 29 30 30 30 30 30 29 28 27 27 26 25 24 25 25 26 27 28 29 30 31 32 33 32 30 29 29 29 29 27 26 26 26 26 27 26 24 22 22 22 22 23 23 23 24 24 23 22 22 21 19 17 16 17 18 17 16 15 14 14 15 14 14 13 13 13 12 12 12 11 11 11 11
26 26 26 26 27 28 28 28 28 28 28 29 30 31 31 31 30 30 29 28 28 28 28 27 27 26 25 24 24 25 26 28 30 31 32 33 33 31 30 30 30 29 27 26 25 25 28 30 29 26 25 25 25 26 26 25 25 25 25 24 23 22 21 20 18 18 18 17 16 16 15 16 16 15 15 15 14 13 12 12 12 12 12 11 11
28 28 28 27 27 28 28 28 28 27 27 28 29 31 32 32 32 32 32 31 30 30 30 30 30 29 28 26 24 24 24 24 26 28 29 31 32 32 31 31 31 31 30 27 25 24 26 28 30 30 30 29 26 26 26 25 24 25 25 25 25 24 23 22 21 19 19 18 18 17 17 17 16 16 16 16 15 14 13 13 13 12 12 12 11
28 29 28 28 28 29 29 29 29 29 29 29 30 31 33 34 35 35 34 33 34 33 33 32 32 32 32 31 28 26 25 24 23 24 26 28 29 30 31 32 32 32 32 31 28 25 24 25 27 30 31 29 25 23 23 23 22 24 26 27 26 25 24 24 23 22 22 20 19 19 19 18 17 16 17 17 17 16 15 15 14 13 13 13 12
29 29 29 29 30 30 30 30 31 31 31 32 32 33 34 35 37 37 37 36 36 36 36 36 35 34 34 35 34 32 29 27 25 24 25 27 28 28 29 30 31 31 32 32 30 28 25 25 26 27 26 24 23 23 23 23 24 25 27 28 27 26 25 24 24 25 26 24 22 20 20 19 18 17 17 18 18 17 17 17 16 15 14 14 14
29 30 30 30 30 31 31 32 32 33 33 34 34 35 35 37 38 39 40 40 39 38 37 37 36 36 35 35 35 35 33 30 28 27 26 27 28 28 27 28 29 29 30 30 29 29 29 28 26 24 24 23 23 24 24 25 26 26 26 28 28 27 27 27 27 28 29 27 24 21 19 17 18 17 17 17 18 18 18 18 17 16 16 15 15
31 31 31 31 31 31 31 31 32 33 34 34 35 35 35 36 37 39 40 40 40 39 38 36 35 35 35 35 34 34 33 31 29 28 28 28 29 29 28 27 26 27 28 28 26 26 29 29 26 25 24 24 24 25 24 25 26 26 26 27 28 29 30 30 30 31 31 29 26 23 19 17 17 17 17 17 18 18 18 18 18 18 17 15 15
Wind_Direction
277 350 248 217 195 188 188 181 178 174 160 149 149 154 152 144 134 125 118 109 97 76 54 33 20 15 13 11 11 12 9 6 3 2 4 4 3 3 2 359 354 350 346 342 339 335 331 329 327 327 327 326 325 322 317 313 307 299 292 285 277 271 261 255 262 261 250 252 260 260 260 261 262 260 256 256 256 257 257 255 253 252 253 255 257
251 241 223 219 216 210 211 205 192 185 184 174 163 161 158 151 142 136 131 120 103 83 58 34 27 21 17 17 16 13 11 8 5 3 5 6 7 7 7 6 2 359 357 354 351 346 345 342 338 338 336 333 332 329 326 321 316 308 300 295 288 280 270 258 262 267 263 261 260 256 257 262 265 264 261 260 258 256 255 254 253 252 253 257 259
258 251 235 218 217 220 225 223 215 205 197 192 184 174 168 164 157 151 147 131 117 105 76 44 36 24 18 20 16 11 9 9 8 6 7 9 10 9 9 8 6 2 359 357 353 348 348 344 341 342 340 338 337 335 332 326 321 318 310 307 303 294 290 282 276 271 259 259 259 255 255 261 267 267 264 265 264 261 258 257 255 253 253 255 258
277 264 246 227 217 222 231 230 228 224 213 206 201 194 187 183 177 169 162 148 137 127 92 48 26 16 13 13 6 1 2 5 7 7 9 10 10 10 10 8 6 1 354 349 345 343 341 340 341 343 343 343 342 341 338 332 328 323 316 315 315 307 298 290 286 276 248 238 247 258 258 258 263 267 266 267 269 268 267 264 261 259 257 256 256
298 288 268 244 226 221 228 233 234 233 226 218 211 211 206 197 191 185 176 168 164 170 164 20 4 5 8 5 355 350 354 359 4 6 8 8 8 9 9 8 6 1 353 341 332 329 328 330 335 338 341 342 341 340 337 334 330 323 319 318 314 310 304 292 283 277 258 231 224 234 243 247 251 255 259 263 265 267 266 262 261 261 262 263 260
299 300 296 272 243 230 230 231 234 237 235 226 217 221 218 203 197 193 187 184 184 191 207 259 316 347 359 353 344 344 350 356 2 6 6 5 5 5 4 4 3 359 353 344 328 316 310 312 316 321 327 330 332 332 330 330 325 321 321 319 314 307 302 298 290 280 273 253 235 226 226 235 243 248 255 260 260 263 263 258 258 259 261 266 267
290 292 296 288 265 246 240 234 231 234 238 233 221 223 224 214 207 205 206 211 208 204 213 243 278 323 354 348 342 344 350 354 0 4 4 3 2 2 1 360 358 356 353 348 337 321 305 300 301 302 306 310 318 323 326 328 324 321 320 315 311 306 299 295 289 286 290 283 268 252 237 239 247 249 256 262 262 262 263 261 261 261 261 262 264
285 284 287 286 275 255 244 239 233 228 232 236 227 222 225 225 224 225 228 227 214 207 218 237 262 304 352 347 338 341 348 353 358 360 1 1 0 1 0 359 357 353 349 346 342 333 314 300 295 294 295 297 301 307 315 321 322 319 314 308 306 302 296 289 285 289 279 267 263 262 258 256 257 250 247 255 260 259 261 266 267 264 262 258 256
292 284 279 276 274 268 256 245 240 232 230 235 231 226 226 229 235 237 241 238 219 208 221 236 257 294 325 333 331 335 344 351 355 356 356 356 357 359 359 359 358 354 348 344 341 338 327 311 299 294 293 292 290 292 298 308 315 315 307 300 296 291 285 278 275 269 259 260 260 253 252 255 261 257 249 252 259 261 260 262 264 263 259 255 253
312 297 287 279 275 277 273 256 248 242 236 235 234 230 229 233 240 242 253 257 228 207 219 237 257 291 307 316 324 331 340 348 351 351 351 352 352 354 357 359 358 354 350 345 341 338 333 324 312 302 299 295 292 293 297 306 314 316 310 300 292 283 275 267 256 247 247 249 246 244 249 253 258 264 264 262 265 268 269 263 258 257 255 254 256
349 329 313 301 289 284 279 263 255 251 243 238 236 233 230 233 240 244 256 259 220 204 221 238 255 284 295 299 312 322 331 338 341 342 345 346 347 349 352 356 356 354 351 349 344 339 335 330 321 312 306 300 298 298 302 309 316 319 317 311 304 295 288 281 263 248 243 239 239 242 250 255 257 264 268 267 267 271 279 275 264 258 256 256 258
21 7 353 334 308 289 272 253 249 250 248 244 239 236 232 231 235 240 248 241 212 209 225 235 251 276 282 285 296 307 317 325 330 333 338 340 342 344 347 350 352 353 352 350 346 341 337 334 328 322 317 312 309 308 310 313 315 317 317 313 308 301 295 290 284 272 260 254 255 259 263 265 266 264 265 267 270 278 282 275 271 265 261 260 256
33 28 21 8 344 315 276 241 235 239 243 242 239 237 235 234 234 235 235 225 212 215 225 233 249 265 269 273 282 294 306 314 320 325 330 333 336 338 341 344 347 350 351 349 346 342 339 335 331 327 324 322 318 315 314 311 309 312 313 310 304 300 298 294 289 285 278 271 269 275 278 277 274 271 271 270 273 284 284 271 265 264 260 256 252
33 32 30 24 15 4 344 255 219 217 225 231 233 235 237 239 238 234 228 220 215 220 226 233 245 255 260 265 274 287 298 305 311 316 321 325 328 332 335 338 341 345 347 345 345 344 342 336 331 328 325 323 319 315 312 308 307 310 311 309 305 300 299 297 292 286 282 277 272 274 278 278 277 276 278 278 278 286 289 277 263 257 252 245 244
27 28 28 27 26 23 20 22 174 193 205 217 225 232 239 241 238 232 227 222 220 223 228 234 242 249 255 261 271 281 290 297 303 308 312 316 320 324 328 331 334 339 342 341 341 345 346 342 334 329 325 322 319 315 311 308 307 310 311 308 305 301 299 297 293 287 282 279 274 270 270 274 278 279 281 282 285 288 288 283 260 242 243 241 239
19 20 20 22 24 24 28 38 69 163 187 205 223 235 238 239 236 231 227 224 224 226 229 235 241 246 253 259 267 276 284 291 297 301 304 308 312 316 320 324 328 333 338 339 338 342 347 346 340 333 329 326 322 318 312 309 308 309 308 306 302 301 300 298 293 285 278 274 269 263 262 266 274 281 284 283 285 288 287 287 270 231 232 253 251
11 11 11 13 14 15 21 28 43 141 195 208 221 233 235 234 233 231 229 227 227 229 232 236 241 246 251 257 265 273 280 288 292 295 298 301 306 309 313 317 323 328 334 337 336 337 343 346 343 336 332 328 323 318 313 309 307 307 305 303 303 302 303 302 295 285 275 267 262 259 257 261 268 279 286 287 286 282 280 287 283 244 218 252 256
0 359 358 1 4 3 8 11 14 11 310 246 236 237 235 234 234 234 235 234 233 234 235 239 243 247 252 259 266 272 277 283 286 289 292 296 299 303 306 311 317 323 329 332 333 333 338 343 343 338 332 327 323 320 315 309 305 304 303 303 305 306 308 306 296 280 269 263 259 258 257 259 264 273 283 288 288 283 275 278 282 275 254 255 262
350 350 347 349 354 352 348 348 352 348 340 327 302 275 253 241 239 239 240 241 240 240 241 244 247 252 257 262 267 272 275 278 282 284 288 291 293 296 299 304 311 319 324 327 329 332 336 340 341 337 331 326 324 323 316 307 302 301 302 306 308 308 312 312 300 278 266 262 258 257 258 259 263 267 275 283 289 293 294 293 293 296 294 282 281
336 334 332 334 343 347 338 328 320 318 320 318 313 304 284 266 256 249 247 248 249 250 251 253 255 258 262 265 268 271 273 275 278 281 285 287 287 289 291 295 305 314 320 323 326 330 335 338 339 336 329 326 325 322 313 304 300 301 305 310 309 309 314 317 307 288 272 267 262 259 258 258 260 263 268 276 283 290 296 299 301 297 291 290 287
331 327 323 318 323 337 333 321 309 304 302 298 296 295 290 284 275 264 259 257 258 260 260 261 263 265 268 269 271 272 273 274 275 277 280 280 280 283 283 285 299 311 316 320 322 328 334 337 337 335 329 327 327 322 313 305 302 304 309 312 308 307 312 310 306 298 286 279 275 271 265 260 260 262 267 273 279 283 289 297 304 294 286 288 282
333 335 328 314 313 329 329 319 312 308 305 300 295 291 287 285 280 275 270 268 265 263 264 267 270 273 275 275 274 272 272 273 273 275 278 280 282 284 278 276 294 307 313 316 319 325 332 335 335 334 331 329 328 325 317 310 306 307 309 309 306 306 306 301 298 295 291 289 288 288 283 275 269 266 266 269 273 277 280 287 297 291 273 268 270
329 339 342 328 321 329 327 317 313 316 314 309 303 295 289 285 281 277 272 270 268 265 266 269 272 275 277 276 275 276 278 280 279 278 280 284 288 284 269 267 289 302 309 313 316 322 330 333 333 333 331 329 327 325 322 316 311 310 309 305 305 306 304 300 297 294 293 293 294 296 297 294 288 275 266 262 263 267 265 257 256 255 249 263 280
336 342 350 346 336 334 331 322 311 307 305 303 299 293 288 285 282 280 275 270 269 269 270 272 274 276 274 274 278 285 294 296 289 280 276 282 287 277 260 264 283 297 306 309 311 319 327 330 330 331 330 329 326 324 323 320 315 311 308 306 306 307 306 303 300 297 296 295 296 296 296 296 293 283 269 258 251 250 250 248 250 258 267 276 285
354 0 5 2 355 344 337 329 316 307 302 299 296 290 287 284 280 279 278 274 271 272 274 275 278 277 274 277 287 293 300 302 294 283 276 275 276 266 258 264 277 292 303 305 307 316 324 326 328 329 330 329 327 324 322 321 316 311 307 305 307 309 311 310 304 301 298 296 298 297 296 296 294 285 274 262 249 237 238 245 251 259 258 248 247
352 356 353 354 347 335 329 324 316 310 303 298 292 286 282 279 277 276 278 279 278 276 276 277 280 279 278 285 294 295 296 295 290 285 275 266 264 260 257 262 274 288 297 300 304 311 319 324 326 329 331 330 327 323 321 320 315 310 307 305 306 309 311 311 307 301 296 296 299 296 291 291 289 284 280 271 260 245 232 233 234 239 230 209 209
329 317 320 324 318 319 325 323 316 312 309 305 298 288 279 272 269 271 276 279 279 277 277 279 280 281 283 290 295 295 293 291 286 280 271 261 258 258 257 262 272 283 291 295 299 306 315 321 325 329 332 330 325 321 319 317 313 308 306 306 305 306 310 309 304 299 295 295 295 288 283 282 279 281 285 278 267 247 224 215 200 191 189 182 177
320 300 298 299 302 313 325 326 321 319 323 322 315 304 291 277 267 267 274 279 279 276 273 272 275 280 286 292 296 295 294 292 284 273 264 258 255 254 258 262 269 278 285 289 293 300 311 319 323 328 330 327 322 319 317 314 311 308 306 305 302 303 306 304 302 299 294 292 289 280 275 275 271 269 269 262 250 222 193 180 173 172 176 180 183
298 294 286 290 302 314 324 331 330 327 330 332 328 324 313 291 271 267 273 282 289 285 276 270 271 277 284 291 297 298 296 293 283 271 264 260 253 250 255 260 264 271 278 283 288 296 307 316 321 325 327 326 320 317 316 313 309 307 304 303 302 302 302 300 299 300 296 291 282 273 270 267 259 252 246 237 223 208 194 186 187 194 205 217 231
289 291 291 299 310 315 322 330 329 327 333 336 333 328 323 312 283 267 270 278 285 286 280 273 271 274 280 289 297 299 296 290 282 277 273 266 257 250 251 256 258 264 273 278 283 290 301 311 317 320 324 324 320 317 317 314 310 306 301 301 302 300 297 293 292 294 294 289 278 269 266 261 251 240 230 223 218 213 209 209 210 217 231 242 250
285 284 285 294 304 309 316 322 324 328 333 333 332 328 323 320 305 283 274 269 265 267 272 276 278 280 284 293 299 300 297 291 284 279 274 264 256 251 249 255 258 262 269 273 278 285 295 305 311 315 320 323 322 318 316 315 313 306 297 296 302 300 293 288 288 289 288 283 275 268 263 258 250 239 226 222 222 222 224 228 231 234 239 249 260
283 283 285 288 294 300 308 314 320 326 328 327 327 326 322 316 308 300 291 280 273 269 269 275 286 292 292 295 298 298 296 291 284 280 275 265 259 254 253 258 262 263 268 273 276 282 290 299 305 310 315 320 322 320 315 314 314 309 300 292 294 298 292 285 285 288 287 282 274 268 263 255 249 241 233 228 228 229 231 236 241 245 247 250 259
280 282 284 286 292 297 301 306 314 324 326 323 323 320 313 304 299 303 304 298 292 281 270 271 288 292 289 287 285 284 285 284 280 278 277 274 271 267 261 259 258 262 269 273 276 281 288 295 300 305 309 314 319 319 315 312 311 309 304 295 290 291 288 284 281 283 287 285 277 271 265 257 250 245 242 241 240 239 240 243 246 249 252 253 255
276 277 278 283 291 297 301 302 305 314 321 320 319 315 305 298 296 302 308 307 301 296 295 301 300 289 284 285 286 283 279 277 276 276 277 277 276 273 268 262 259 262 267 268 271 278 286 292 297 301 305 309 314 317 314 311 309 308 305 298 291 284 280 278 276 277 281 282 279 274 267 261 256 250 249 250 251 252 251 252 255 256 259 263 267
277 278 280 284 287 289 293 295 295 300 308 312 314 313 306 300 299 299 304 311 308 303 302 300 295 289 285 286 290 292 290 284 278 276 275 275 275 273 270 266 261 259 258 257 261 270 279 287 293 298 301 304 308 312 313 311 307 306 306 301 293 283 274 270 269 270 274 277 277 275 269 265 261 256 254 255 258 261 262 263 264 265 267 272 276
296 295 296 296 293 290 287 285 287 293 299 299 300 303 304 303 301 297 299 308 309 305 304 298 290 289 290 289 287 285 284 284 282 280 277 274 273 272 268 264 261 259 255 254 257 263 270 280 289 294 297 300 303 306 309 311 309 305 304 301 295 285 273 265 262 263 267 270 272 272 269 266 262 258 257 257 259 264 268 270 271 270 271 275 277
316 315 316 313 309 304 297 291 290 294 301 301 297 296 295 295 296 294 293 294 293 298 308 310 298 291 292 296 294 286 280 275 271 269 270 269 270 270 267 261 258 258 257 256 256 258 265 278 287 290 291 294 298 301 303 307 309 307 304 301 297 289 278 266 259 256 261 264 267 268 267 265 262 259 258 258 260 263 266 270 273 273 273 275 277
318 318 318 316 314 313 310 307 305 306 309 309 306 300 294 291 292 291 288 285 281 286 297 299 297 297 294 293 296 297 295 288 278 272 273 272 267 263 259 253 251 255 259 257 254 255 262 271 278 280 282 285 289 293 297 302 305 307 305 301 297 293 284 274 262 254 254 258 262 265 267 266 264 260 258 258 259 261 264 267 270 273 274 276 276
313 314 314 315 316 316 315 312 311 311 312 311 310 308 305 304 301 295 290 285 279 279 287 288 287 291 290 288 289 293 295 296 295 294 291 283 273 265 260 257 255 260 262 259 256 257 260 263 265 268 274 280 283 283 287 294 299 302 303 301 297 294 289 281 271 260 252 252 256 261 265 267 266 262 259 258 257 258 261 264 266 269 272 274 275
308 309 311 314 315 314 312 310 310 313 315 315 315 313 312 311 307 300 293 285 277 272 274 281 285 283 281 282 284 285 287 290 294 296 294 288 284 282 280 276 269 265 262 259 259 259 257 256 258 259 264 273 280 280 280 284 290 294 297 297 294 292 290 286 279 269 258 251 251 255 260 264 266 265 262 259 258 258 259 261 263 266 269 271 273
307 307 310 313 312 310 309 309 310 312 312 313 313 312 310 309 308 304 302 298 289 277 267 266 276 282 281 280 279 279 280 282 286 290 290 289 290 293 292 286 277 270 266 262 260 258 253 251 252 252 254 263 272 275 276 278 281 285 289 291 291 290 289 286 282 275 267 257 251 251 255 260 263 265 263 261 259 259 259 261 262 264 266 269 271
305 307 309 309 307 306 305 304 304 304 304 305 305 305 304 303 303 304 304 304 303 294 282 274 273 275 278 280 279 278 277 277 278 281 284 287 290 292 291 288 284 278 270 263 257 252 248 248 249 249 251 257 264 269 272 273 273 275 279 282 285 286 287 285 281 276 271 264 257 252 251 253 257 260 262 261 260 259 260 261 262 262 263 265 267
301 301 301 300 298 297 295 294 294 295 297 299 299 299 299 298 298 299 300 300 301 301 298 292 286 282 280 279 279 278 277 276 276 277 277 280 283 286 287 289 288 284 274 264 259 254 250 249 250 251 252 257 262 266 268 268 266 266 268 273 277 280 283 282 279 275 273 268 261 255 250 249 251 255 257 259 258 258 259 259 261 262 261 262 264
295 295 294 292 291 290 289 288 290 291 293 295 296 296 296 297 298 298 298 298 299 298 297 295 292 290 286 282 279 278 276 275 274 274 274 274 276 279 282 284 284 282 274 263 256 250 247 249 251 251 253 258 263 265 266 265 262 258 259 264 269 273 276 278 277 275 273 268 262 258 253 249 247 249 252 256 256 257 257 257 258 259 258 259 261
292 291 290 289 288 288 287 287 288 290 292 294 296 296 297 297 298 298 297 297 297 298 298 297 294 292 289 285 281 278 275 273 271 271 270 270 271 273 277 278 278 280 277 268 256 245 240 241 245 249 252 256 260 264 265 262 258 253 251 255 263 268 271 274 275 274 272 269 266 263 257 251 248 246 247 251 253 254 255 254 253 254 253 253 255
293 291 290 290 289 289 289 290 290 291 293 294 296 298 300 301 301 302 302 302 300 299 300 301 301 298 295 292 288 284 280 276 272 270 268 267 267 268 271 274 275 275 276 273 266 257 247 241 238 241 247 251 257 263 265 258 252 250 248 249 256 262 266 270 272 274 274 272 268 264 258 252 249 246 245 246 249 251 252 250 249 248 247 247 248
292 291 290 291 291 292 292 293 293 293 294 295 297 299 300 302 303 304 304 304 304 303 302 303 303 303 300 299 296 293 290 285 279 274 271 269 266 265 266 269 271 272 272 272 270 269 265 257 246 240 240 243 249 259 261 253 247 247 247 246 250 255 260 265 269 271 273 271 266 261 258 255 251 247 246 246 246 244 243 244 244 243 242 242 241
288 286 287 288 290 290 292 293 293 294 294 294 295 296 297 299 300 300 300 301 300 301 302 302 303 303 302 301 300 298 295 293 286 278 274 272 269 265 264 265 268 270 272 273 271 269 270 269 261 251 245 243 245 249 251 247 245 245 244 244 246 249 253 259 264 266 266 266 264 260 258 257 255 249 245 244 243 241 238 238 238 237 236 236 236
288 286 285 286 287 288 289 289 289 290 291 291 291 291 293 294 295 295 296 296 296 297 298 298 299 299 298 299 301 301 299 296 293 285 278 275 272 268 264 265 268 269 270 273 273 271 268 264 263 262 261 258 254 250 245 243 242 241 240 240 243 245 248 251 256 260 261 261 262 261 260 258 256 252 247 244 244 243 241 240 237 234 233 233 233
291 290 289 289 289 289 289 289 288 289 289 289 289 290 290 291 292 293 294 295 295 295 295 295 295 295 295 297 299 300 300 298 296 292 286 280 276 272 267 265 268 270 270 271 273 275 272 266 261 263 267 267 264 257 249 243 242 240 238 238 238 240 243 244 247 253 258 260 262 264 264 261 257 254 252 248 246 244 244 244 242 240 237 236 235
297 296 295 295 294 293 292 291 291 291 291 290 291 291 291 291 292 294 295 296 297 298 298 297 296 295 296 298 299 298 298 298 297 295 292 288 283 277 272 268 266 267 269 270 271 272 272 271 266 261 260 260 261 259 253 247 245 243 240 239 238 237 239 242 244 249 256 261 264 265 265 261 256 252 251 249 247 245 243 243 244 244 243 242 240
Height
3169 3169 3169 3170 3170 3170 3170 3171 3171 3171 3172 3173 3173 3174 3175 3175 3176 3177 3178 3178 3179 3179 3180 3180 3179 3179 3179 3178 3177 3177 3176 3176 3175 3174 3173 3172 3170 3169 3168 3167 3166 3166 3165 3165 3164 3163 3163 3163 3162 3162 3161 3161 3160 3160 3159 3158 3158 3157 3157 3156 3157 3157 3158 3158 3158 3158 3158 3158 3159 3158 3158 3158 3158 3157 3157 3156 3156 3156 3156 3156 3156 3156 3155 3155 3155
3169 3169 3169 3169 3170 3170 3170 3171 3171 3172 3173 3173 3174 3174 3175 3176 3176 3177 3178 3178 3179 3180 3180 3180 3180 3179 3179 3178 3178 3177 3177 3176 3175 3174 3173 3172 3171 3170 3168 3167 3166 3165 3165 3164 3164 3163 3163 3162 3162 3161 3161 3160 3160 3159 3159 3158 3157 3156 3156 3155 3155 3155 3156 3156 3156 3156 3156 3157 3157 3157 3157 3156 3156 3155 3155 3155 3155 3155 3155 3154 3154 3154 3154 3154 3154
3168 3168 3168 3169 3169 3170 3170 3171 3171 3172 3173 3173 3174 3175 3175 3176 3176 3177 3178 3178 3179 3180 3180 3181 3180 3180 3179 3179 3178 3178 3177 3176 3175 3174 3173 3172 3171 3170 3169 3168 3167 3166 3165 3164 3163 3163 3162 3162 3161 3161 3160 3160 3159 3159 3158 3157 3156 3155 3155 3154 3154 3154 3154 3155 3154 3154 3155 3155 3156 3156 3156 3155 3155 3154 3154 3154 3153 3153 3153 3153 3153 3153 3153 3153 3153
3168 3168 3168 3168 3169 3169 3170 3170 3171 3172 3172 3173 3174 3174 3175 3176 3176 3177 3178 3178 3179 3180 3180 3180 3180 3180 3179 3179 3178 3178 3177 3176 3175 3174 3173 3172 3171 3171 3170 3168 3167 3166 3165 3164 3163 3162 3161 3161 3160 3160 3159 3158 3158 3157 3157 3156 3155 3154 3154 3153 3153 3153 3153 3154 3153 3153 3153 3154 3154 3154 3154 3154 3154 3152 3152 3152 3152 3151 3151 3152 3152 3152 3152 3152 3152
3168 3168 3168 3168 3168 3168 3169 3169 3170 3171 3172 3173 3174 3174 3175 3175 3176 3176 3177 3178 3179 3179 3180 3180 3180 3180 3179 3179 3178 3178 3177 3176 3175 3174 3173 3172 3171 3170 3169 3168 3167 3166 3165 3164 3163 3162 3161 3160 3160 3159 3158 3158 3157 3156 3156 3155 3154 3154 3153 3153 3152 3152 3152 3152 3152 3152 3152 3152 3152 3153 3153 3153 3152 3151 3151 3151 3150 3150 3150 3150 3150 3151 3151 3151 3151
3168 3168 3167 3167 3167 3168 3168 3168 3169 3169 3170 3172 3173 3174 3174 3175 3176 3176 3177 3178 3178 3179 3179 3180 3180 3179 3179 3179 3178 3178 3177 3176 3175 3174 3173 3172 3171 3170 3169 3168 3167 3166 3165 3164 3163 3162 3161 3160 3160 3159 3158 3158 3157 3156 3155 3155 3154 3153 3152 3152 3151 3151 3151 3151 3151 3151 3151 3150 3151 3151 3151 3150 3150 3150 3149 3149 3148 3148 3148 3148 3149 3149 3150 3150 3149
3168 3167 3167 3167 3167 3167 3167 3167 3167 3168 3169 3170 3172 3173 3174 3175 3175 3176 3177 3178 3178 3179 3179 3179 3179 3179 3179 3178 3178 3177 3176 3175 3174 3173 3172 3172 3171 3170 3169 3168 3167 3165 3164 3163 3162 3161 3160 3159 3159 3158 3158 3157 3156 3156 3155 3154 3153 3152 3152 3151 3150 3150 3150 3150 3150 3150 3149 3149 3149 3149 3149 3149 3149 3149 3148 3147 3146 3146 3146 3147 3147 3148 3148 3148 3148
3168 3167 3167 3167 3166 3166 3166 3166 3166 3167 3168 3169 3170 3171 3173 3174 3175 3176 3176 3177 3178 3178 3179 3179 3179 3179 3178 3178 3178 3177 3176 3175 3174 3173 3172 3171 3170 3169 3168 3167 3166 3164 3163 3162 3161 3160 3159 3159 3158 3157 3157 3156 3156 3155 3154 3153 3153 3152 3151 3150 3150 3149 3149 3149 3149 3149 3149 3148 3148 3148 3148 3148 3148 3147 3147 3146 3144 3143 3144 3145 3146 3146 3146 3146 3146
3168 3167 3167 3166 3166 3166 3165 3165 3165 3166 3166 3167 3169 3170 3171 3172 3173 3174 3175 3176 3177 3178 3179 3179 3179 3178 3178 3178 3177 3177 3176 3175 3174 3173 3171 3171 3169 3168 3167 3166 3165 3164 3163 3161 3160 3160 3158 3158 3157 3156 3156 3155 3155 3154 3154 3153 3152 3152 3151 3150 3150 3149 3148 3148 3148 3148 3148 3147 3147 3147 3147 3147 3146 3146 3145 3145 3143 3142 3143 3145 3145 3144 3144 3144 3144
3168 3167 3167 3166 3165 3165 3165 3165 3164 3164 3165 3166 3167 3169 3170 3171 3172 3173 3174 3174 3175 3177 3178 3178 3178 3178 3177 3177 3176 3176 3175 3174 3173 3172 3171 3169 3168 3167 3166 3165 3164 3163 3162 3161 3160 3159 3157 3156 3156 3155 3154 3154 3153 3153 3152 3152 3151 3151 3150 3149 3149 3148 3148 3147 3147 3147 3147 3146 3146 3146 3146 3146 3146 3145 3144 3144 3142 3140 3142 3143 3143 3142 3142 3142 3142
3168 3167 3167 3166 3165 3164 3164 3164 3164 3164 3165 3166 3166 3167 3169 3170 3171 3172 3172 3173 3174 3175 3176 3177 3177 3177 3176 3176 3176 3175 3174 3173 3172 3171 3170 3169 3167 3166 3165 3164 3163 3162 3161 3160 3158 3157 3156 3156 3154 3153 3153 3152 3152 3151 3150 3150 3149 3149 3148 3148 3148 3147 3147 3146 3146 3146 3146 3146 3145 3145 3145 3145 3145 3144 3143 3142 3141 3139 3141 3142 3141 3141 3141 3141 3141
3168 3167 3166 3165 3164 3164 3164 3164 3164 3164 3164 3165 3166 3167 3168 3169 3170 3170 3171 3172 3173 3174 3175 3176 3176 3176 3176 3175 3175 3174 3173 3172 3171 3170 3169 3168 3167 3166 3164 3163 3162 3161 3160 3159 3157 3156 3155 3154 3153 3152 3151 3150 3150 3149 3149 3148 3148 3147 3147 3147 3146 3146 3146 3145 3145 3145 3144 3144 3144 3144 3144 3143 3143 3142 3141 3141 3141 3140 3140 3141 3140 3140 3139 3139 3139
3169 3168 3167 3166 3165 3164 3163 3163 3163 3164 3165 3165 3166 3166 3167 3168 3169 3169 3170 3171 3172 3173 3174 3175 3175 3175 3175 3174 3174 3174 3173 3172 3171 3170 3169 3168 3166 3165 3164 3163 3162 3161 3159 3158 3156 3155 3154 3153 3152 3151 3150 3149 3148 3147 3147 3147 3146 3146 3146 3145 3145 3145 3144 3144 3143 3143 3143 3143 3143 3143 3143 3142 3142 3141 3140 3140 3140 3139 3139 3139 3139 3138 3138 3138 3138
3170 3169 3167 3166 3165 3164 3164 3163 3163 3164 3164 3165 3165 3166 3167 3167 3168 3168 3169 3170 3171 3172 3173 3174 3174 3174 3174 3174 3174 3173 3172 3171 3170 3169 3169 3168 3167 3165 3164 3163 3162 3161 3160 3158 3157 3155 3154 3152 3151 3150 3149 3148 3147 3146 3146 3146 3145 3145 3145 3144 3144 3143 3143 3142 3142 3142 3142 3142 3142 3142 3142 3141 3141 3140 3139 3139 3139 3139 3138 3138 3138 3137 3137 3137 3138
3171 3170 3169 3167 3166 3165 3165 3164 3164 3164 3165 3165 3166 3166 3166 3167 3167 3167 3168 3169 3170 3171 3172 3173 3173 3173 3173 3173 3173 3173 3172 3171 3170 3169 3168 3168 3167 3165 3164 3163 3162 3161 3160 3159 3157 3155 3153 3152 3151 3150 3149 3147 3146 3146 3145 3145 3145 3144 3144 3143 3142 3142 3142 3141 3141 3140 3140 3140 3140 3141 3141 3140 3140 3139 3138 3138 3138 3138 3137 3137 3137 3137 3137 3137 3137
3172 3171 3170 3169 3168 3167 3166 3165 3165 3165 3165 3165 3166 3166 3166 3166 3166 3167 3167 3168 3169 3170 3171 3171 3172 3172 3172 3172 3172 3172 3172 3171 3170 3169 3168 3167 3166 3165 3164 3163 3162 3161 3160 3158 3157 3155 3153 3152 3150 3149 3148 3147 3146 3145 3144 3144 3144 3143 3143 3142 3141 3141 3141 3140 3140 3139 3139 3139 3139 3139 3140 3139 3139 3138 3137 3137 3138 3137 3137 3136 3135 3136 3136 3137 3137
3173 3172 3171 3170 3169 3168 3167 3166 3166 3165 3165 3165 3165 3166 3166 3166 3166 3166 3167 3168 3168 3169 3170 3170 3171 3171 3171 3171 3171 3171 3171 3170 3169 3169 3167 3167 3166 3165 3163 3162 3161 3160 3159 3158 3156 3155 3153 3151 3150 3149 3148 3147 3146 3145 3144 3144 3143 3143 3142 3141 3141 3140 3140 3139 3139 3138 3138 3138 3138 3138 3138 3138 3138 3137 3136 3136 3137 3137 3136 3135 3134 3134 3135 3135 3135
3173 3172 3171 3170 3170 3169 3168 3168 3167 3166 3166 3165 3165 3165 3165 3165 3166 3166 3166 3167 3168 3168 3169 3169 3169 3169 3170 3170 3170 3169 3169 3169 3168 3167 3166 3165 3164 3163 3162 3161 3160 3159 3158 3157 3156 3154 3153 3151 3150 3148 3147 3146 3145 3144 3143 3143 3142 3142 3141 3141 3140 3140 3139 3139 3138 3137 3137 3137 3137 3137 3137 3137 3137 3137 3135 3134 3135 3135 3135 3135 3134 3134 3134 3135 3134
3173 3172 3172 3171 3170 3169 3169 3168 3168 3168 3167 3167 3166 3166 3165 3165 3165 3166 3166 3166 3167 3167 3167 3168 3168 3168 3168 3168 3168 3168 3167 3167 3167 3166 3165 3164 3163 3162 3161 3160 3159 3158 3158 3156 3155 3153 3152 3150 3149 3148 3146 3145 3144 3143 3143 3142 3142 3141 3141 3140 3140 3139 3139 3138 3137 3137 3136 3136 3136 3136 3136 3136 3136 3136 3135 3134 3134 3134 3134 3134 3134 3134 3134 3134 3134
3173 3172 3172 3171 3170 3170 3169 3168 3168 3168 3167 3167 3167 3166 3166 3165 3165 3165 3165 3166 3166 3166 3166 3166 3166 3167 3167 3167 3166 3166 3165 3165 3164 3164 3163 3162 3161 3160 3160 3160 3159 3157 3157 3155 3154 3152 3151 3149 3148 3147 3145 3144 3143 3143 3142 3141 3141 3140 3140 3139 3139 3139 3138 3137 3137 3136 3136 3135 3135 3135 3135 3135 3135 3135 3135 3134 3133 3133 3133 3133 3134 3134 3134 3134 3134
3173 3172 3171 3171 3171 3170 3169 3169 3168 3167 3167 3167 3166 3166 3166 3165 3165 3165 3165 3165 3165 3165 3165 3165 3165 3165 3165 3164 3164 3164 3163 3162 3162 3161 3161 3160 3159 3159 3159 3158 3157 3156 3155 3154 3153 3151 3150 3148 3147 3145 3144 3143 3143 3142 3141 3140 3140 3139 3139 3139 3138 3138 3138 3137 3136 3136 3135 3135 3134 3134 3134 3134 3134 3134 3134 3133 3133 3133 3133 3133 3133 3134 3134 3134 3134
3172 3172 3171 3171 3170 3170 3169 3169 3168 3167 3167 3166 3166 3165 3165 3164 3164 3164 3164 3163 3163 3163 3163 3163 3163 3163 3163 3162 3162 3161 3161 3160 3159 3159 3159 3158 3158 3157 3157 3156 3156 3155 3154 3153 3151 3150 3148 3147 3146 3144 3143 3142 3141 3141 3140 3139 3138 3138 3138 3138 3138 3137 3137 3136 3136 3135 3134 3134 3134 3133 3133 3133 3133 3133 3133 3133 3132 3132 3132 3133 3133 3133 3134 3134 3133
3172 3171 3171 3170 3170 3169 3169 3169 3168 3167 3166 3166 3165 3165 3164 3163 3163 3162 3162 3161 3161 3161 3161 3162 3162 3162 3161 3160 3159 3159 3159 3159 3158 3158 3158 3157 3156 3156 3155 3154 3154 3153 3152 3151 3150 3149 3147 3146 3145 3143 3142 3141 3140 3139 3139 3138 3137 3137 3137 3137 3137 3137 3136 3135 3135 3134 3134 3133 3133 3133 3133 3133 3133 3133 3132 3132 3132 3132 3132 3132 3132 3133 3133 3133 3132
3171 3171 3171 3170 3169 3169 3168 3168 3167 3166 3166 3165 3164 3163 3163 3162 3161 3161 3160 3160 3159 3159 3160 3160 3160 3160 3158 3157 3157 3158 3158 3158 3157 3156 3155 3155 3154 3154 3153 3153 3152 3151 3151 3150 3149 3148 3146 3145 3144 3142 3141 3140 3139 3138 3137 3137 3136 3136 3136 3136 3136 3136 3135 3135 3134 3134 3133 3133 3133 3132 3132 3132 3132 3132 3132 3132 3132 3132 3132 3132 3132 3132 3132 3132 3132
3171 3171 3170 3169 3168 3168 3167 3166 3166 3165 3164 3163 3163 3162 3161 3160 3160 3159 3159 3159 3159 3159 3159 3159 3159 3157 3156 3156 3157 3157 3156 3156 3154 3153 3153 3152 3152 3151 3151 3151 3150 3150 3149 3148 3147 3146 3145 3144 3143 3141 3140 3139 3138 3137 3136 3136 3135 3135 3135 3135 3135 3135 3134 3134 3133 3133 3133 3132 3132 3132 3132 3132 3132 3132 3131 3131 3131 3132 3131 3131 3131 3132 3132 3132 3132
3170 3170 3169 3168 3168 3167 3167 3166 3165 3164 3162 3161 3160 3159 3158 3158 3158 3157 3157 3157 3157 3157 3157 3157 3157 3155 3154 3155 3155 3155 3154 3153 3152 3151 3150 3150 3150 3150 3150 3149 3148 3148 3147 3146 3146 3145 3144 3143 3142 3140 3139 3138 3137 3136 3135 3135 3135 3134 3134 3134 3134 3134 3133 3133 3133 3133 3132 3132 3132 3131 3131 3131 3131 3131 3131 3131 3131 3131 3131 3131 3131 3131 3132 3132 3132
3169 3169 3168 3168 3168 3167 3166 3165 3164 3163 3161 3159 3157 3156 3155 3155 3155 3155 3155 3155 3154 3154 3154 3154 3154 3152 3152 3153 3153 3153 3152 3150 3149 3149 3148 3148 3148 3148 3148 3148 3147 3146 3146 3145 3144 3144 3143 3142 3141 3139 3138 3137 3136 3135 3134 3134 3134 3133 3133 3133 3133 3133 3133 3132 3132 3132 3132 3131 3131 3131 3131 3131 3131 3131 3131 3131 3131 3131 3131 3131 3131 3131 3132 3132 3132
3168 3168 3167 3167 3166 3166 3165 3164 3163 3161 3160 3158 3156 3154 3152 3152 3153 3153 3153 3152 3152 3152 3152 3151 3151 3150 3149 3150 3151 3150 3149 3148 3147 3147 3146 3146 3146 3146 3146 3146 3146 3145 3144 3143 3143 3142 3142 3141 3140 3138 3137 3136 3135 3135 3134 3133 3133 3132 3132 3132 3132 3132 3132 3132 3132 3131 3131 3131 3131 3131 3131 3131 3131 3131 3130 3130 3130 3131 3131 3131 3131 3132 3132 3132 3132
3168 3167 3167 3166 3165 3165 3164 3163 3162 3160 3158 3156 3154 3152 3150 3150 3150 3150 3150 3150 3149 3149 3149 3148 3148 3147 3147 3148 3148 3147 3147 3146 3146 3145 3145 3145 3145 3145 3145 3144 3144 3143 3143 3142 3141 3141 3140 3140 3139 3137 3136 3135 3135 3134 3133 3132 3132 3131 3131 3131 3131 3131 3131 3131 3131 3131 3131 3130 3130 3130 3130 3130 3130 3130 3130 3130 3131 3131 3131 3131 3131 3132 3132 3132 3132
3167 3167 3166 3164 3164 3163 3163 3162 3161 3159 3157 3155 3153 3151 3149 3148 3148 3147 3147 3146 3146 3146 3146 3145 3144 3144 3145 3145 3145 3144 3144 3144 3144 3144 3144 3144 3143 3143 3143 3142 3142 3142 3141 3140 3140 3140 3139 3138 3138 3137 3136 3135 3134 3133 3132 3132 3131 3130 3130 3130 3130 3131 3131 3131 3130 3130 3130 3130 3130 3130 3130 3130 3130 3130 3130 3130 3131 3131 3131 3131 3131 3132 3132 3132 3132
3166 3166 3165 3164 3163 3162 3162 3161 3160 3158 3157 3154 3151 3149 3148 3147 3146 3145 3144 3143 3142 3142 3142 3142 3142 3142 3142 3142 3142 3142 3141 3141 3141 3142 3142 3142 3141 3141 3140 3140 3140 3140 3139 3139 3138 3138 3138 3137 3137 3136 3135 3134 3133 3132 3131 3131 3130 3130 3129 3129 3129 3130 3130 3130 3130 3130 3130 3130 3130 3130 3130 3130 3130 3130 3130 3130 3131 3131 3131 3131 3131 3132 3132 3132 3132
3166 3165 3164 3163 3162 3161 3160 3159 3158 3157 3155 3153 3151 3149 3147 3146 3145 3144 3143 3142 3140 3139 3138 3138 3139 3139 3139 3139 3139 3139 3139 3138 3138 3139 3139 3139 3139 3138 3138 3138 3138 3138 3137 3137 3137 3137 3136 3136 3135 3135 3134 3133 3132 3131 3130 3130 3129 3129 3128 3128 3128 3128 3129 3129 3129 3129 3129 3129 3129 3129 3129 3130 3130 3130 3130 3130 3130 3131 3131 3131 3131 3131 3132 3132 3132
3165 3164 3163 3162 3161 3160 3159 3158 3157 3155 3154 3152 3151 3149 3146 3143 3142 3141 3141 3140 3139 3137 3136 3134 3135 3136 3136 3136 3136 3136 3136 3136 3136 3136 3136 3136 3135 3135 3135 3135 3135 3135 3135 3135 3135 3135 3135 3134 3134 3134 3133 3132 3131 3130 3129 3129 3128 3128 3128 3127 3127 3127 3128 3128 3128 3128 3128 3128 3128 3129 3129 3129 3129 3129 3130 3130 3130 3130 3130 3131 3131 3131 3131 3131 3131
3163 3162 3162 3161 3160 3159 3158 3156 3155 3154 3153 3151 3150 3148 3145 3142 3140 3138 3137 3137 3136 3136 3134 3132 3132 3133 3133 3133 3134 3134 3134 3133 3133 3132 3132 3132 3132 3133 3133 3133 3133 3133 3133 3133 3133 3133 3133 3133 3132 3132 3132 3131 3130 3129 3128 3128 3127 3127 3127 3127 3126 3126 3126 3127 3127 3127 3127 3128 3128 3128 3128 3128 3129 3129 3129 3129 3129 3130 3130 3130 3130 3131 3131 3131 3131
3162 3161 3160 3159 3158 3157 3156 3155 3153 3152 3151 3150 3149 3148 3145 3142 3141 3139 3137 3135 3134 3133 3132 3130 3130 3131 3130 3130 3131 3132 3131 3130 3129 3129 3129 3129 3130 3130 3130 3130 3130 3130 3130 3130 3131 3131 3131 3131 3131 3131 3131 3130 3129 3128 3127 3127 3126 3126 3126 3126 3126 3125 3125 3125 3126 3126 3126 3127 3127 3127 3127 3128 3128 3128 3128 3129 3129 3129 3129 3130 3130 3130 3130 3130 3130
3161 3160 3159 3158 3156 3155 3154 3153 3151 3150 3149 3148 3147 3146 3144 3142 3141 3140 3138 3136 3134 3132 3131 3129 3128 3128 3127 3127 3127 3127 3126 3126 3126 3126 3126 3127 3127 3127 3127 3127 3127 3127 3127 3128 3128 3129 3129 3129 3129 3129 3129 3129 3128 3127 3126 3125 3125 3124 3124 3125 3125 3125 3124 3124 3125 3125 3125 3126 3126 3126 3126 3126 3127 3127 3127 3128 3128 3128 3128 3129 3129 3129 3129 3130 3130
3159 3158 3157 3156 3155 3153 3152 3150 3149 3148 3147 3145 3144 3144 3143 3141 3140 3139 3138 3137 3134 3132 3131 3129 3127 3125 3125 3124 3123 3123 3122 3123 3123 3123 3123 3124 3124 3124 3123 3123 3123 3124 3125 3125 3126 3126 3127 3127 3127 3127 3127 3127 3127 3126 3125 3124 3124 3123 3123 3123 3124 3124 3124 3123 3123 3124 3124 3124 3125 3125 3125 3125 3126 3126 3126 3127 3127 3127 3128 3128 3128 3128 3129 3129 3129
3158 3157 3156 3155 3153 3152 3150 3148 3147 3146 3145 3144 3142 3141 3140 3139 3138 3137 3136 3135 3133 3131 3130 3129 3127 3124 3123 3122 3121 3120 3120 3119 3119 3121 3122 3122 3121 3121 3120 3119 3120 3121 3122 3123 3123 3124 3124 3124 3124 3124 3124 3124 3124 3124 3124 3123 3122 3122 3122 3122 3122 3123 3123 3122 3122 3122 3123 3123 3123 3124 3124 3124 3124 3125 3125 3126 3126 3126 3127 3127 3127 3127 3127 3128 3128
3156 3155 3154 3153 3151 3150 3148 3147 3146 3145 3143 3142 3140 3138 3137 3136 3135 3134 3133 3133 3132 3130 3128 3127 3125 3123 3122 3120 3119 3118 3118 3116 3115 3118 3121 3120 3118 3117 3117 3118 3118 3119 3119 3120 3120 3120 3121 3121 3121 3121 3121 3121 3122 3122 3122 3121 3121 3120 3121 3120 3120 3121 3121 3121 3121 3121 3121 3122 3122 3122 3122 3123 3123 3123 3124 3124 3125 3125 3125 3126 3126 3126 3126 3126 3127
3155 3154 3153 3151 3150 3148 3146 3145 3144 3142 3141 3139 3138 3136 3135 3134 3132 3131 3131 3130 3129 3128 3126 3124 3123 3122 3120 3119 3117 3117 3117 3115 3113 3115 3117 3116 3115 3115 3116 3116 3116 3116 3116 3116 3116 3117 3117 3118 3118 3118 3118 3118 3119 3119 3120 3119 3119 3119 3119 3119 3119 3119 3119 3120 3120 3120 3120 3120 3120 3121 3121 3121 3121 3122 3122 3123 3123 3124 3124 3124 3124 3125 3125 3125 3125
3153 3152 3150 3149 3148 3146 3144 3143 3141 3140 3139 3137 3135 3134 3132 3131 3130 3128 3127 3126 3125 3124 3123 3121 3120 3119 3118 3117 3116 3116 3116 3115 3113 3113 3113 3112 3112 3113 3114 3113 3112 3113 3113 3113 3113 3114 3114 3114 3115 3115 3115 3116 3116 3116 3117 3117 3117 3117 3117 3117 3117 3117 3117 3118 3118 3118 3118 3118 3119 3119 3119 3119 3120 3120 3121 3121 3122 3122 3122 3123 3123 3123 3124 3124 3124
3150 3149 3148 3147 3145 3144 3142 3141 3139 3138 3136 3135 3133 3132 3130 3129 3127 3126 3125 3123 3122 3120 3119 3118 3117 3116 3116 3115 3115 3114 3113 3112 3112 3111 3110 3108 3108 3109 3110 3110 3110 3110 3111 3111 3111 3111 3111 3111 3112 3112 3112 3113 3113 3113 3114 3114 3115 3115 3115 3115 3115 3115 3116 3116 3116 3116 3116 3117 3117 3117 3118 3118 3118 3118 3119 3119 3120 3120 3121 3121 3122 3122 3122 3123 3123
3148 3146 3145 3144 3143 3141 3140 3138 3136 3135 3133 3132 3130 3129 3127 3126 3124 3123 3122 3120 3119 3118 3116 3115 3114 3113 3113 3112 3112 3111 3111 3110 3109 3108 3108 3107 3105 3105 3106 3107 3107 3107 3108 3108 3108 3108 3108 3108 3109 3109 3109 3110 3110 3110 3111 3112 3112 3112 3112 3112 3112 3113 3114 3114 3114 3114 3115 3115 3115 3115 3116 3116 3116 3117 3117 3117 3118 3118 3119 3120 3120 3121 3121 3122 3122
3145 3143 3142 3141 3140 3138 3137 3135 3133 3131 3130 3128 3127 3125 3124 3122 3121 3120 3118 3117 3116 3115 3113 3112 3111 3110 3109 3109 3108 3108 3107 3106 3106 3105 3104 3104 3103 3101 3102 3103 3103 3103 3103 3104 3104 3104 3104 3105 3105 3106 3107 3107 3107 3107 3108 3109 3109 3110 3110 3110 3110 3111 3111 3112 3112 3112 3113 3113 3113 3114 3114 3115 3115 3115 3115 3115 3116 3116 3117 3118 3118 3119 3120 3120 3120
3142 3140 3139 3138 3136 3135 3133 3132 3130 3128 3126 3124 3123 3121 3120 3119 3117 3116 3115 3113 3112 3111 3110 3109 3108 3106 3105 3104 3104 3103 3103 3102 3102 3101 3100 3100 3099 3098 3098 3098 3098 3098 3099 3100 3100 3100 3101 3101 3102 3103 3103 3104 3104 3104 3104 3105 3106 3106 3107 3108 3108 3108 3109 3110 3110 3110 3110 3111 3112 3112 3112 3113 3113 3113 3114 3114 3114 3114 3115 3116 3116 3117 3118 3118 3119
3138 3137 3136 3134 3132 3131 3129 3128 3126 3125 3123 3121 3119 3118 3116 3115 3114 3112 3111 3110 3109 3107 3106 3105 3104 3103 3102 3100 3100 3099 3098 3098 3097 3097 3096 3096 3096 3095 3095 3094 3093 3093 3094 3094 3095 3097 3097 3097 3098 3099 3100 3100 3100 3100 3101 3102 3102 3103 3104 3105 3106 3106 3106 3107 3108 3108 3108 3109 3110 3110 3110 3111 3111 3112 3112 3112 3112 3113 3113 3114 3114 3115 3116 3116 3117
3134 3133 3131 3130 3128 3127 3125 3124 3123 3121 3120 3119 3117 3115 3113 3111 3110 3109 3107 3106 3105 3104 3103 3101 3100 3099 3097 3097 3096 3095 3094 3094 3093 3093 3092 3092 3091 3091 3090 3090 3090 3089 3089 3089 3090 3092 3093 3094 3094 3095 3095 3095 3096 3096 3096 3098 3099 3100 3101 3102 3103 3103 3104 3104 3105 3106 3106 3107 3107 3108 3108 3109 3109 3110 3110 3110 3111 3111 3111 3112 3112 3113 3114 3114 3115
3130 3129 3127 3126 3124 3123 3121 3120 3119 3117 3117 3115 3114 3112 3110 3108 3106 3105 3104 3103 3101 3100 3099 3098 3097 3095 3093 3092 3092 3091 3090 3089 3089 3089 3088 3088 3087 3087 3086 3085 3085 3085 3085 3085 3085 3086 3088 3089 3090 3090 3091 3091 3092 3092 3093 3094 3096 3097 3097 3098 3099 3100 3101 3102 3102 3103 3103 3104 3105 3105 3106 3106 3107 3108 3108 3108 3109 3109 3110 3110 3110 3111 3112 3112 3113
3126 3125 3123 3122 3120 3119 3118 3117 3115 3114 3113 3111 3110 3108 3107 3105 3103 3101 3100 3099 3098 3097 3096 3094 3093 3092 3090 3088 3087 3087 3086 3085 3085 3084 3084 3083 3083 3083 3082 3081 3081 3081 3081 3081 3081 3081 3083 3085 3085 3086 3087 3088 3088 3089 3089 3091 3092 3093 3094 3094 3096 3097 3099 3100 3100 3100 3100 3100 3102 3102 3103 3104 3105 3105 3106 3106 3107 3107 3108 3108 3109 3109 3110 3110 3111
3123 3122 3120 3119 3117 3116 3114 3113 3112 3110 3109 3107 3106 3104 3103 3101 3099 3097 3095 3094 3093 3092 3092 3091 3089 3088 3086 3085 3084 3083 3082 3081 3081 3080 3080 3079 3079 3078 3078 3078 3077 3077 3077 3077 3078 3078 3079 3080 3081 3082 3084 3085 3085 3085 3086 3088 3089 3089 3090 3091 3092 3094 3095 3096 3097 3097 3097 3097 3099 3100 3101 3102 3102 3103 3104 3104 3105 3105 3106 3106 3107 3107 3108 3108 3109
3120 3118 3117 3115 3114 3112 3111 3109 3108 3106 3105 3103 3102 3101 3099 3098 3096 3094 3092 3090 3088 3087 3086 3086 3085 3084 3082 3081 3080 3079 3078 3077 3077 3076 3075 3075 3074 3074 3074 3074 3074 3073 3073 3073 3074 3074 3074 3075 3076 3077 3078 3080 3081 3081 3083 3085 3085 3086 3087 3087 3088 3090 3091 3092 3093 3093 3094 3095 3096 3097 3099 3100 3100 3100 3101 3102 3102 3103 3104 3104 3105 3105 3106 3107 3107